Location: Newark
(49.8969°N, 3.3422°E)
Time: 13:04:30
(UTC+00:00)

Courier 1B - Visible Passes

Search period start: 17 January 2020 00:00
Search period end: 27 January 2020 00:00
Orbit: 962 x 1209 km, 28.3° (Epoch: 16 January)

Date Brightness Start Highest point End Pass type
(mag) Time Alt. Az. Time Alt. Az. Time Alt. Az.
17 Jan 10.2 06:49:28 10° SSW 06:52:43 13° S 06:55:59 10° SSE visible
18 Jan 10.2 05:56:33 10° S 05:59:12 12° SSE 06:01:52 10° SSE visible
19 Jan 10.3 05:04:33 10° S 05:05:42 10° SSE 05:06:52 10° SSE visible
19 Jan 10.1 06:54:42 10° SSW 06:58:22 14° S 07:02:01 10° SSE visible
20 Jan 10.1 06:01:19 10° SSW 06:04:50 14° S 06:08:21 10° SSE visible
21 Jan 10.0 05:08:14 10° SSW 05:11:18 13° S 05:14:24 10° SSE visible
22 Jan 10.0 04:15:40 10° S 04:17:49 11° SSE 04:19:58 10° SSE visible
22 Jan 10.0 06:06:56 10° SSW 06:10:28 14° S 06:14:02 10° SSE visible
23 Jan 9.9 05:13:28 10° SSW 05:16:57 14° S 05:20:27 10° SSE visible
24 Jan 9.8 04:21:52 12° S 04:23:26 13° S 04:26:37 10° SSE visible
24 Jan 10.0 06:13:20 10° SSW 06:16:06 12° S 06:18:53 10° SSE visible
25 Jan 10.1 03:31:29 11° SSE 03:31:29 11° SSE 03:32:25 10° SSE visible
25 Jan 9.9 05:19:27 10° SSW 05:22:36 13° S 05:25:45 10° SSE visible
26 Jan 9.8 04:27:59 13° S 04:29:05 13° S 04:32:19 10° SSE visible
